Location: Angola by the Bay
(38.6709°N, 75.1746°W)
Time: 01:20:26
(UTC+00:00)

Gurwin Techsat 1B - Pass Details

Date: 16 December 2025
Orbit: 810 x 811 km, 99.0° (Epoch: 19 January)

Event Time Altitude Azimuth Distance (km) Brightness Sun altitude
Rises 09:10:24 0° 24° (NNE) 3,338 12.0 -34.6°
Reaches altitude 10° 09:12:58 10° 33° (NNE) 2,402 11.3 -34.1°
Maximum altitude 09:17:45 34° 98° (E) 1,323 10.1 -33.1°
Drops below altitude 10° 09:22:30 10° 162° (SSE) 2,388 11.3 -32.2°
Sets 09:25:02 0° 171° (S) 3,315 12.0 -31.7°
